Regional Weather Roundup
Issued by NWS

Home | Current Version | Previous Version | Text Only | Print | Product List | Glossary On
Versions: 1 2 3 4 5 6 7 8 9 10 11 12 13 14 15 16 17 18 19 20 21 22 23 24 25 26 27 28 29 30 31 32 33 34 35 36 37 38 39 40 41 42 43 44 45 46 47 48 49 50
000
ASUS43 KMKX 220311
RWRWI

WISCONSIN REGIONAL WEATHER ROUNDUP
NATIONAL WEATHER SERVICE MILWAUKEE/SULLIVAN WI
1000 PM CDT MON JUL 21 2014

NOTE: "FAIR" INDICATES FEW OR NO CLOUDS BELOW 12,000 FEET WITH NO
SIGNIFICANT WEATHER AND/OR OBSTRUCTIONS TO VISIBILITY.

WIZ001-002-006>008-014>016-023>028-220400-
NORTHWEST WISCONSIN

CITY           SKY/WX    TMP DP  RH WIND       PRES   REMARKS
SUPERIOR ARPT  CLOUDY    72  68  87 N5        29.81R
ASHLAND        MOCLDY    80  72  76 S7        29.87S HX  84
HAYWARD        PTCLDY    80  73  79 S12G17    29.87F HX  84
SIREN          MOCLDY    81  72  73 S14       29.83F HX  85
RICE LAKE      PTCLDY    80  69  70 SE14G21   29.89F HX  83
LADYSMITH      CLOUDY    80  72  76 SE9       29.93F HX  83
EAU CLAIRE     CLEAR     81  70  69 S15       29.89F HX  84
MENOMONIE      CLOUDY    80  69  68 SE13      29.88F HX  83
NEW RICHMOND   MOCLDY    80  71  73 SE12G18   29.85F HX  83
OSCEOLA        CLOUDY    82  73  75 SE14G22   29.85S HX  87
$$

WIZ003>005-009-010-017-018-220400-
NORTH CENTRAL WISCONSIN

CITY           SKY/WX    TMP DP  RH WIND       PRES   REMARKS
WOODRUFF       CLEAR     77  72  84 S7        29.96F
RHINELANDER    CLEAR     74  69  85 SE6       29.99S
EAGLE RIVER    CLEAR     73  67  81 S3        29.97F
LAND O LAKES   CLEAR     75  69  81 S6        29.97F
PHILLIPS       MOCLDY    76  71  84 S10       29.95R
TOMAHAWK       CLEAR     72  68  86 CALM      29.97F
MEDFORD        CLEAR     74  68  82 S8        29.99R
MERRILL        CLEAR     75  70  85 S3        29.97F
$$

WIZ029-030-035-036-043>047-220400-
CENTRAL WISCONSIN

CITY           SKY/WX    TMP DP  RH WIND       PRES   REMARKS
WAUSAU         CLEAR     77  68  73 S9        29.96S
MOSINEE        CLEAR     75  70  83 S8        29.99S
MARSHFIELD     CLEAR     74  68  81 S8        29.98R
STEVENS POINT  CLEAR     76  66  71 S8        29.99S
WAUPACA        CLEAR     78  69  73 S3        30.00S HX  80
WAUTOMA        CLEAR     77  69  76 S3        30.00R
WISC RAPIDS    CLEAR     78  67  68 S7        29.99S HX  80
CAMP DOUGLAS   PTCLDY    75  70  83 SE2       29.98R
$$

WIZ011>013-019>022-031-037>040-048>050-220400-
NORTHEAST WISCONSIN

CITY           SKY/WX    TMP DP  RH WIND       PRES   REMARKS
ANTIGO         CLEAR     72  68  88 S8        30.01S
STURGEON BAY   CLEAR     70  61  73 S12       30.02S
GREEN BAY      CLEAR     74  65  73 S8        30.01R
MANITOWOC      CLEAR     70  62  76 S9        30.03S
APPLETON       CLEAR     77  66  69 VRB7      30.01S
CLINTONVILLE   CLEAR     73  66  78 S3        29.99S
OSHKOSH        CLEAR     74  69  85 S7        30.00S
$$

WIZ032>034-041-042-053>061-220400-
SOUTHWEST WISCONSIN

CITY           SKY/WX    TMP DP  RH WIND       PRES   REMARKS
LA CROSSE      CLOUDY    83  69  62 SE9       29.93S HX  86
SPARTA         CLEAR     77  65  66 S6        29.98R
VIROQUA        FAIR      75  68  78 S7        30.00R
BOSCOBEL       CLEAR     80  68  66 SW3       29.98R HX  83
PRAIRIE DU CHI CLEAR     79  66  64 SE5       29.97R HX  81
PLATTEVILLE    FAIR      75  69  81 SE9       30.01S
$$

WIZ056-057-062-063-064-067-068-220400-
SOUTH CENTRAL WISCONSIN

CITY           SKY/WX    TMP DP  RH WIND       PRES   REMARKS
BARABOO/DELLS  CLEAR     76  66  70 S9        30.00S
LONE ROCK      CLEAR     81  69  67 SE6       29.99R HX  84
WATERTOWN      CLEAR     74  68  82 S6        30.03R
MADISON        PTCLDY    79  68  69 S12       30.01S HX  81
MIDDLETON      FAIR      78  67  68 S8        30.02S HX  81
MONROE         CLEAR     73  68  83 S12       30.03S
JANESVILLE     CLEAR     77  64  65 S8        30.03R
$$

WIZ051-052-058>065-066-070>072-220400-
SOUTHEAST WISCONSIN

CITY           SKY/WX    TMP DP  RH WIND       PRES   REMARKS
MILWAUKEE      PTCLDY    74  63  68 S7        30.04S
WAUKESHA       CLEAR     72  64  78 S3        30.06R
MILWAUKEE/TIMM CLEAR     73  61  64 S6        30.05S
RACINE         CLEAR     74  64  71 S5        30.06S
BURLINGTON     CLEAR     72  65  80 S5        30.05S
KENOSHA        CLEAR     73  66  78 S6        30.05S
FOND DU LAC    CLEAR     75  67  76 S8        30.01S
SHEBOYGAN      CLEAR     71  62  73 S10       30.03S
WEST BEND      CLEAR     72  61  68 CALM      30.04S
JUNEAU         CLEAR     74  53  47 S9        30.04R
$$

LSZ147-162-220400-
LAKE SUPERIOR

STATION/POSITION TIME  TEMP    WIND        PRES    WAVE
                       AIR SEA DIR/SP/G            HT/PER
                 (UTC) (F)     (DEG/KT/KT) (MB)    (FT/S)
W MID LAKE BUOY  0250   53 41  140/ 10/ 10 1011.1S   0
PORT WING        0200   84     160/  4/  8 1010.2F
SAXON HARBOR     0200           CALM  /  3 1011.2S
$$

LMZ867-665-643>646-220400-
LAKE MICHIGAN

STATION/POSITION TIME  TEMP    WIND        PRES    WAVE
                       AIR SEA DIR/SP/G            HT/PER
                 (UTC) (F)     (DEG/KT/KT) (MB)    (FT/S)
N MID LAKE BUOY  0150   64 57  210/ 17/ 21 1015.3F   3/ 5
NORTHPORT PIER   0200   70     170/  6/ 13 1015.9S
KEWAUNEE LAKESHO 0200   58     160/  6/  7 1017.5R
SHEBOYGAN LAKESH 0300   71     180/ 18/ 18 1016.7F
PORT WASHINGTON  0240   64     190/  7/ 10 1017.3F
ATWATER BUOY     0300   58     170/  6     1018.0S
MILWAUKEE LAKESH 0200   64     180/  3/  4   N/A
S MID LAKE BUOY  0250   72 70  160/ 10/ 12 1017.8S   0
KENOSHA   LAKESH 0300   71     180/ 11/ 13   N/A
$$

TC  - TEMPERATURE IN CELSIUS
VSB - VISIBILITY IN STATUTE MILES
WCI - WIND CHILL INDEX
HX  - HEAT INDEX



USA.gov is the U.S. government's official web portal to all federal, state and local government web resources and services.